FENGYUN 1C DEB, 30886

Orbit data source: Space-Track

FENGYUN 1C DEB, 30886 is space debris in SSO originally from a launch on Mon, 10 May 1999 UTC launched from the Taiyaun Space Center, China (TSC). Fengyun 1C debris stems from the Chinese weather satellite Fengyun-1C, which was intentionally destroyed by a Chinese anti-satellite missile in 2007. This event dramatically increased the amount of space debris, with thousands of trackable fragments posing hazards to satellites and human spaceflight. The Fengyun 1C debris cloud has become a focal point in discussions about space sustainability and the need for international regulations to prevent the creation of new debris.

Loading next visibility...
Identifier
30886, 1999-025AXY
Orbit
SSO
Country
Flag of CNCN / PRC
Related business
Manufacturer
Unknown
Mission
Spacecraft
Bus & Motor
Unknown
Mass
Unknown
Launch date (UTC)
1999-05-10 (27 years ago)
Launch vehicle
Unknown
Launch site
Taiyaun Space Center, China (TSC)
Object type
Payload
Rocket body
Debris
Shape & HBR
Unknown shape, 0.1 m
Radar Cross Section
Small (<0.1 m²)

Expand to show TLE details & history
Last TLE update: 1 day ago

TLE from 1 day ago
0 FENGYUN 1C DEB
1 30886U 99025AXY 26133.99417516  .00001818  00000-0  81032-3 0  9992
2 30886  99.2043  38.9374 0035241 325.2693  34.6184 14.23830927985628
Epoch: 2026-05-13T23:51Z
TLE epoch observation values (Epoch: 2026-05-13T23:51:36.733Z)
Latitude
0.00001°
Longitude
169.28813°
Altitude
794.5 km
Speed
7.467 km/s
True Right ascension
02h 35m 44s
True Declination
0° 00' 00"
Sunlit
Object was in daylight at epoch
Visualization orbit readout
Latitude
Unknown
Longitude
Unknown
Altitude
Unknown
Speed
Unknown
Apparent Right ascension
Unknown
Apparent Declination
Unknown
Sunlit
N/A
Visualization observer readout
Local Sidereal Time
19:43:04
Azimuth
Unknown
Elevation
Unknown
Doppler factor
Unknown
Orbital elements
Apogee altitude
834.934 km
Perigee altitude
784.273 km
Semi-major axis
7,187.741 km
Eccentricity
0.00352
Inclination
99.2043°
RAAN
38.9374°
Arg. of periapsis
325.2693°
True anomaly
34.84865°
Mean anomaly
34.6184°
Eccentric anomaly
34.73344°
Mean motion
3.56168 °/min
Orbital period
101.08 mins
BSTAR
0.00081032
Loading maneuver chart data...
Computing Atmospheric mass density...
Loading historical data...
Loading historical data...
Loading historical data...
Loading historical data...
Loading historical data...
Loading historical data...
Loading historical data...

Documentation

Showing up to 5 results
|